Weather History for KSAV - July, 2013

Change the Weather History Date:

Tuesday, July 23, 2013

  Actual Average Record
Temperature  
Mean Temperature 83 °F 83 °F  
Max Temperature 91 °F 93 °F 103 °F (1952)
Min Temperature 74 °F 73 °F 61 °F (1966)
Degree Days  
Heating Degree Days 0 0  
Month to date heating degree days 0 0  
Since 1 June heating degree days 0 0  
Since 1 July heating degree days 0 0  
Cooling Degree Days 18 18  
Month to date cooling degree days 373 406  
Year to date cooling degree days 1199 1255  
Since 1 June cooling degree days 841 852  
Growing Degree Days 33 (Base 50)    
Moisture  
Dew Point 72 °F    
Average Humidity 72    
Maximum Humidity 87    
Minimum Humidity 56    
Precipitation  
Precipitation 0.02 in 0.19 in 5.22 in (1942)
Month to date precipitation 7.62 3.98  
Year to date precipitation 35.44 26.19  
Sea Level Pressure  
Sea Level Pressure 29.93 in    
Wind  
Wind Speed 10 mph (WSW)    
Max Wind Speed 22 mph    
Max Gust Speed 30 mph    
Visibility 10 miles    
Events Rain , Thunderstorm    
T = Trace of Precipitation, MM = Missing Value Source: NWS Daily Summary

Daily Weather History Graph

Daily Weather History Graph

Search for Another Location

Airport or City:

Trip Planner

Search our weather history database for the weather conditions in past years. The results will help you decide how hot, cold, wet, or windy it might be!

Date:

Astronomy

Jul. 23, 2013 Rise Set
Actual Time 6:34 AM EDT 8:28 PM EDT
Civil Twilight 6:06 AM EDT 8:55 PM EDT
Nautical Twilight 5:34 AM EDT 9:28 PM EDT
Astronomical Twilight 4:58 AM EDT 10:03 PM EDT
Moon 9:04 PM EDT (7/23) 7:33 AM EDT (7/23)
Length of Visible Light 14h 48m
Length of Day
13h 53m
Full, 99% of the Moon is Illuminated
Jul 23
Full
Jul 29
Last Quarter
Aug 6
New
Aug 14
First Quarter
Aug 20
Full

Hourly Weather History & Observations

Time (EDT) Temp. Heat Index Dew Point Humidity Pressure Visibility Wind Dir Wind Speed Gust Speed Precip Events Conditions
12:53 AM 75.9 °F - 72.0 °F 87% 29.98 in 10.0 mi WSW 12.7 mph - N/A   Clear
1:53 AM 75.9 °F - 71.1 °F 85% 29.96 in 10.0 mi WSW 8.1 mph - N/A   Mostly Cloudy
2:00 AM 75.2 °F - 71.6 °F 89% 29.96 in 10.0 mi WSW 10.4 mph - N/A   Scattered Clouds
2:09 AM 75.2 °F - 71.6 °F 89% 29.96 in 10.0 mi WSW 8.1 mph - N/A   Mostly Cloudy
2:53 AM 75.9 °F - 71.1 °F 85% 29.96 in 10.0 mi WSW 8.1 mph - N/A   Overcast
3:14 AM 75.2 °F - 71.6 °F 89% 29.95 in 10.0 mi WSW 9.2 mph - N/A   Overcast
3:53 AM 75.9 °F - 71.1 °F 85% 29.95 in 10.0 mi WSW 8.1 mph - N/A   Overcast
4:05 AM 75.2 °F - 71.6 °F 89% 29.95 in 10.0 mi WSW 9.2 mph - N/A   Overcast
4:53 AM 75.9 °F - 71.1 °F 85% 29.95 in 10.0 mi SW 10.4 mph - N/A   Overcast
5:53 AM 75.9 °F - 71.1 °F 85% 29.96 in 10.0 mi WSW 11.5 mph - N/A   Overcast
6:40 AM 75.2 °F - 71.6 °F 89% 29.97 in 10.0 mi West 10.4 mph - N/A   Overcast
6:53 AM 75.9 °F - 71.1 °F 85% 29.97 in 10.0 mi West 9.2 mph - N/A   Overcast
7:53 AM 75.9 °F - 70.0 °F 82% 29.97 in 10.0 mi West 9.2 mph - N/A   Mostly Cloudy
8:47 AM 78.8 °F - 69.8 °F 74% 29.97 in 10.0 mi West 15.0 mph - N/A   Mostly Cloudy
8:53 AM 78.1 °F - 70.0 °F 76% 29.96 in 10.0 mi West 15.0 mph - N/A   Mostly Cloudy
9:37 AM 80.6 °F 83.9 °F 69.8 °F 70% 29.96 in 10.0 mi West 10.4 mph - N/A   Mostly Cloudy
9:53 AM 80.1 °F 83.2 °F 70.0 °F 71% 29.96 in 10.0 mi West 11.5 mph - N/A   Scattered Clouds
10:53 AM 82.0 °F 86.3 °F 71.1 °F 69% 29.96 in 10.0 mi West 13.8 mph - N/A   Overcast
11:53 AM 84.9 °F 90.1 °F 71.1 °F 63% 29.96 in 10.0 mi West 15.0 mph 25.3 mph N/A   Mostly Cloudy
12:53 PM 86.0 °F 92.2 °F 72.0 °F 63% 29.94 in 10.0 mi West 13.8 mph 23.0 mph N/A   Scattered Clouds
1:53 PM 89.1 °F 97.0 °F 73.0 °F 59% 29.92 in 10.0 mi West 12.7 mph - N/A   Scattered Clouds
2:53 PM 89.1 °F 96.0 °F 72.0 °F 57% 29.90 in 10.0 mi WNW 13.8 mph - N/A   Scattered Clouds
3:53 PM 89.1 °F 96.0 °F 72.0 °F 57% 29.88 in 10.0 mi West 12.7 mph - N/A   Mostly Cloudy
4:53 PM 90.0 °F 96.9 °F 72.0 °F 55% 29.86 in 10.0 mi West 11.5 mph - N/A   Scattered Clouds
5:53 PM 89.1 °F 96.0 °F 72.0 °F 57% 29.85 in 10.0 mi West 11.5 mph - N/A   Mostly Cloudy
6:53 PM 88.0 °F 95.6 °F 73.0 °F 61% 29.85 in 10.0 mi SW 8.1 mph - N/A   Mostly Cloudy
7:53 PM 86.0 °F 93.0 °F 73.0 °F 65% 29.86 in 10.0 mi WSW 6.9 mph - N/A   Scattered Clouds
8:53 PM 82.9 °F 89.4 °F 73.9 °F 74% 29.87 in 10.0 mi SW 3.5 mph - N/A   Mostly Cloudy
9:51 PM 82.4 °F 88.2 °F 73.4 °F 74% 29.87 in 10.0 mi Calm Calm - N/A Thunderstorm Thunderstorm
9:53 PM 82.9 °F 89.4 °F 73.9 °F 74% 29.87 in 10.0 mi Calm Calm - N/A Thunderstorm Thunderstorm
10:53 PM 77.0 °F - 70.0 °F 79% 29.88 in 10.0 mi West 15.0 mph - 0.02 in Rain , Thunderstorm Light Thunderstorms and Rain
11:07 PM 75.2 °F - 71.6 °F 89% 29.89 in 9.0 mi West 9.2 mph - 0.00 in Rain Light Rain
11:53 PM 73.9 °F - 71.1 °F 91% 29.89 in 10.0 mi SSW 5.8 mph - 0.00 in   Mostly Cloudy